Location: Spondin
(51.8528°N, 111.6118°W)
Time: 17:39:43
(UTC+00:00)

Vanguard 2 Rocket - Pass Details

Date: 31 May 2022
Orbit: 553 x 3323 km, 32.9° (Epoch: 02 July)

Event Time Altitude Azimuth Distance (km) Brightness Sun altitude
Rises 22:04:29 0° 255° (WSW) 7,311 12.2 47.1°
Reaches altitude 10° 22:10:05 10° 249° (WSW) 6,235 12.1 46.4°
Maximum altitude 22:26:26 37° 192° (SSW) 3,749 10.9 44.1°
Drops below altitude 10° 22:38:07 10° 132° (SE) 4,485 10.3 42.4°
Sets 22:41:23 0° 124° (SE) 5,132 10.5 41.9°
